Starlink 11442

operational
NORAD ID: 62885 Int'l Des: 2025-024 Owner: SPXS Country: US Constellation: starlink
LEOCIRCULAR

关于 Starlink 11442

正在加载描述...

实时位置

正在加载3D地球...

即将过境

高度历史

Altitude vs Time

uPlot chart will show altitude changes over time

两行轨道根数

1 62885U 25024G 25306.47768306 .00329808 00000-0 24572-2 0 9991
2 62885 42.9995 227.8723 0003185 274.1162 85.9342 15.70993214 43469
Epoch: Nov 2, 2025 • Age: 12 hours

当前状态

高度 362.9 km
速度 7.69 km/s
星下点 -33.16°S, 59.66°E
发射日期 Feb 4, 2025
运行时间 0.7 years
类型 internet

技术详情

分类 Payload
质量 960.00 kg
干质量 910.00 kg
总质量 960.00 kg
长度 0.30 m
直径 4.10 m
跨度 29.00 m
形状 Box + pan
制造商 SPXS
平台类型 Starlink V2MD
阶段状态 In Orbit
所有者/国家 SPXS/US

大型星座

Loading constellations...